Grenoble, France

2:49 AM CEST on May 23, 2017 (GMT +0200)
Saint Geoirs

Weather History for LFLS - December, 2012

Change the Weather History Date:

Wednesday, December 5, 2012

  Actual Average Record
Temperature  
Mean Temperature 36 °F -  
Max Temperature 39 °F 41 °F 60 °F (2006)
Min Temperature 33 °F 30 °F 19 °F (2010)
Degree Days  
Heating Degree Days 29    
Moisture  
Dew Point 33 °F    
Average Humidity 91    
Maximum Humidity 100    
Minimum Humidity 81    
Precipitation  
Precipitation 0.00 in - - ()
Sea Level Pressure  
Sea Level Pressure 29.77 in    
Wind  
Wind Speed 5 mph ()    
Max Wind Speed 8 mph    
Max Gust Speed -    
Visibility 6.1 miles    
Events Rain , Snow    
Averages and records for this station are not official NWS values.
T = Trace of Precipitation, MM = Missing Value Source: Averaged Metar Reports

Daily Weather History Graph

Daily Weather History Graph

Search for Another Location

Airport or City:

Trip Planner

Search our weather history database for the weather conditions in past years. The results will help you decide how hot, cold, wet, or windy it might be!

Date:

Astronomy

Dec. 05, 2012 Rise Set
Actual Time 8:02 AM CET 4:56 PM CET
Civil Twilight 7:28 AM CET 5:29 PM CET
Nautical Twilight 6:51 AM CET 6:06 PM CET
Astronomical Twilight 6:16 AM CET 6:42 PM CET
Moon 11:43 PM CET (12/5) 12:06 PM CET (12/5)
Length of Visible Light 10h 00m
Length of Day
8h 53m
Waning Gibbous, 62% of the Moon is Illuminated
Dec 5
Waning Gibbous
Dec 6
Last Quarter
Dec 13
New
Dec 20
First Quarter
Dec 28
Full

Hourly Weather History & Observations

Time (CET) Temp. Windchill Dew Point Humidity Pressure Visibility Wind Dir Wind Speed Gust Speed Precip Events Conditions
12:00 AM 35.6 °F 31.7 °F 33.8 °F 93% 29.77 in 6.2 mi East 4.6 mph - N/A   Overcast
12:30 AM 37.4 °F 33.8 °F 33.8 °F 87% 29.77 in 6.2 mi ENE 4.6 mph - N/A   Overcast
1:00 AM 37.4 °F 32.8 °F 33.8 °F 87% 29.77 in 6.2 mi East 5.8 mph - N/A   Overcast
1:30 AM 37.4 °F 32.1 °F 33.8 °F 87% 29.77 in 6.2 mi West 6.9 mph - N/A Rain Light Rain
2:00 AM 37.4 °F 32.8 °F 33.8 °F 87% 29.77 in 6.2 mi WSW 5.8 mph - N/A   Overcast
2:30 AM 35.6 °F - 33.8 °F 93% 29.77 in 6.2 mi Variable 2.3 mph - N/A   Overcast
3:00 AM 35.6 °F - 32.0 °F 87% 29.77 in 6.2 mi East 1.2 mph - N/A   Mostly Cloudy
3:30 AM 35.6 °F 31.7 °F 33.8 °F 93% 29.77 in 6.2 mi ESE 4.6 mph - N/A   Mostly Cloudy
4:00 AM 35.6 °F 30.7 °F 33.8 °F 93% 29.77 in 6.2 mi ENE 5.8 mph - N/A Rain Rain
4:30 AM 35.6 °F 29.9 °F 33.8 °F 93% 29.74 in 6.2 mi ENE 6.9 mph - N/A   Mostly Cloudy
5:00 AM 33.8 °F 29.6 °F 32.0 °F 93% 29.74 in 6.2 mi East 4.6 mph - N/A   Mostly Cloudy
5:30 AM 33.8 °F 28.6 °F 32.0 °F 93% 29.74 in 6.2 mi ENE 5.8 mph - N/A   Overcast
6:00 AM 35.6 °F 31.7 °F 33.8 °F 93% 29.74 in 6.2 mi ENE 4.6 mph - N/A Rain , Snow Light Rain Showers
6:30 AM 35.6 °F - 33.8 °F 93% 29.74 in 6.2 mi Variable 2.3 mph - N/A   Mostly Cloudy
7:00 AM 33.8 °F 29.6 °F 32.0 °F 93% 29.74 in 6.2 mi ENE 4.6 mph - N/A   Mostly Cloudy
7:30 AM 33.8 °F 28.6 °F 32.0 °F 93% 29.74 in 6.2 mi East 5.8 mph - N/A   Mostly Cloudy
8:00 AM 33.8 °F 28.6 °F 32.0 °F 93% 29.74 in 6.2 mi East 5.8 mph - N/A   Mostly Cloudy
8:30 AM 33.8 °F 27.7 °F 32.0 °F 93% 29.74 in 6.2 mi East 6.9 mph - N/A   Mostly Cloudy
9:00 AM 33.8 °F 27.7 °F 33.8 °F 100% 29.77 in 6.2 mi ENE 6.9 mph - N/A   Light Small Hail Showers
9:30 AM 35.6 °F 30.7 °F 33.8 °F 93% 29.77 in 6.2 mi East 5.8 mph - N/A   Mostly Cloudy
10:00 AM 35.6 °F 32.8 °F 33.8 °F 93% 29.77 in 6.2 mi SE 3.5 mph - N/A   Mostly Cloudy
10:30 AM 37.4 °F 33.8 °F 33.8 °F 87% 29.77 in 6.2 mi SE 4.6 mph - N/A   Mostly Cloudy
11:00 AM 37.4 °F 33.8 °F 35.6 °F 93% 29.77 in 6.2 mi East 4.6 mph - N/A   Mostly Cloudy
11:30 AM 37.4 °F 32.1 °F 35.6 °F 93% 29.77 in 6.2 mi ENE 6.9 mph - N/A   Mostly Cloudy
12:00 PM 37.4 °F 32.1 °F 33.8 °F 87% 29.77 in 6.2 mi East 6.9 mph - N/A   Mostly Cloudy
12:30 PM 39.2 °F 37.0 °F 35.6 °F 87% 29.77 in 6.2 mi East 3.5 mph - N/A   Mostly Cloudy
1:00 PM 39.2 °F 37.0 °F 35.6 °F 87% 29.77 in 6.2 mi ENE 3.5 mph - N/A   Mostly Cloudy
1:30 PM 39.2 °F 37.0 °F 35.6 °F 87% 29.77 in 6.2 mi ENE 3.5 mph - N/A   Mostly Cloudy
2:00 PM 39.2 °F 35.9 °F 35.6 °F 87% 29.77 in 6.2 mi ENE 4.6 mph - N/A   Overcast
3:35 PM 39.2 °F 34.2 °F 33.8 °F 81% 29.74 in 6.2 mi South 6.9 mph - N/A Rain Light Rain
4:00 PM 37.4 °F 32.1 °F 33.8 °F 87% 29.77 in 6.2 mi SSW 6.9 mph - N/A Rain Light Rain
4:30 PM 37.4 °F 33.8 °F 32.0 °F 81% 29.77 in 6.2 mi SE 4.6 mph - N/A Rain Light Rain
5:00 PM 35.6 °F 30.7 °F 33.8 °F 93% 29.77 in 6.2 mi ENE 5.8 mph - N/A   Mostly Cloudy
5:30 PM 35.6 °F 29.2 °F 33.8 °F 93% 29.74 in 6.2 mi East 8.1 mph - N/A   Mostly Cloudy
6:00 PM 35.6 °F 29.9 °F 33.8 °F 93% 29.77 in 6.2 mi East 6.9 mph - N/A   Mostly Cloudy
6:30 PM 35.6 °F 30.7 °F 33.8 °F 93% 29.77 in 6.2 mi East 5.8 mph - N/A Rain Light Rain
7:00 PM 35.6 °F 31.7 °F 33.8 °F 93% 29.77 in 6.2 mi NE 4.6 mph - N/A Rain Light Rain
7:30 PM 35.6 °F 32.8 °F 32.0 °F 87% 29.80 in 6.2 mi SSE 3.5 mph - N/A   Mostly Cloudy
8:00 PM 33.8 °F 29.6 °F 32.0 °F 93% 29.80 in 6.2 mi East 4.6 mph - N/A   Overcast
8:30 PM 33.8 °F 27.7 °F 33.8 °F 100% 29.80 in 6.2 mi East 6.9 mph - N/A Rain Light Rain
9:00 PM 33.8 °F 29.6 °F 32.0 °F 93% 29.80 in 4.3 mi ENE 4.6 mph - N/A Snow Light Snow
9:30 PM 33.8 °F 29.6 °F 32.0 °F 93% 29.80 in 6.2 mi ESE 4.6 mph - N/A   Mostly Cloudy
10:00 PM 33.8 °F 29.6 °F 32.0 °F 93% 29.80 in 6.2 mi ENE 4.6 mph - N/A   Mostly Cloudy
10:30 PM 33.8 °F 28.6 °F 32.0 °F 93% 29.80 in 5.6 mi East 5.8 mph - N/A   Overcast
11:00 PM 33.8 °F 27.7 °F 32.0 °F 93% 29.80 in 4.3 mi East 6.9 mph - N/A   Overcast
11:30 PM 33.8 °F 30.8 °F 33.8 °F 100% 29.80 in 6.2 mi ENE 3.5 mph - N/A   Overcast